Content
SEND FEEDBACK

Daily
Averages
Monthly
Summary
United States of America

NEW PALTZ, NEW YORK


Home > North America > United States > New York
Elevation: 1243 feet     Latitude: 41 08N     Longitude: 074 33W

WEATHER
 
SELECT A DAY
Number of Records: 177,471;   Date Range: 1/1/95 - 9/29/14
 
SHARE

PRINT THIS DATA

[ ← Previous Day ]
WEATHER ALMANAC - JULY 3, 2013
[ Next Day → ]
[ °C ]   °F
Weather ElementAverageHighLow
Temperature76.4 °F81 °F (1:56 pm)72 °F (3:56 am)
Dewpoint70.2 °F72 °F (2:56 pm)66.9 °F (1:56 am)
Humidity81.3 %96 % (10:56 pm)69 % (1:56 pm)
Barometer30.21 in30.24 in (8:56 am)30.17 in (1:56 am)
Wind Speed4 mph10.4 mph (2:56 pm)
Wind Gust16.1 mph (3:56 pm)
Weather ElementAverage
Visibility9.1 mi
Wind DirectionENE (79.6 °)

Weather ElementTotal
Precipitation0.06 in
Cooling Degree Days11.5 (Base 65)
Growing Degree Days26.5 (Base 50)
Averaged from 26 records on July 3, 2013
WEATHER CONDITIONS BREAKOUT
WIND DIRECTION BREAKOUT
WEATHER BY HOUR - JULY 3, 2013
[ °C ]   °F
Local TimeTemperatureDewpointHumidityBarometerVisibilityWind DirectionWind SpeedGust SpeedPrecipitationEventsConditions
1:56 AM73.9 °F66.9 °F79 %30.17 in10.0 miVariable3.5 mphPartly Cloudy
2:56 AM73.0 °F66.9 °F81 %30.17 in10.0 miCalmClear
3:56 AM72.0 °F66.9 °F84 %30.18 in10.0 miCalmClear
4:56 AM72.0 °F66.9 °F84 %30.19 in10.0 miCalmClear
5:56 AM72.0 °F68.0 °F87 %30.21 in10.0 miCalmPartly Cloudy
6:56 AM73.0 °F68.0 °F84 %30.22 in10.0 miCalmPartly Cloudy
7:56 AM73.0 °F68.0 °F84 %30.23 in10.0 miCalmMostly Cloudy
8:56 AM75.0 °F69.1 °F82 %30.24 in10.0 miVariable3.5 mphMostly Cloudy
9:56 AM77.0 °F70.0 °F79 %30.24 in10.0 miVariable6.9 mphMostly Cloudy
10:56 AM77.0 °F70.0 °F79 %30.24 in10.0 miVariable3.5 mphMostly Cloudy
11:56 AM80.1 °F70.0 °F71 %30.23 in10.0 miWSW (250°)6.9 mphMostly Cloudy
12:56 PM80.1 °F70.0 °F71 %30.23 in10.0 miVariable3.5 mphMostly Cloudy
1:56 PM81.0 °F70.0 °F69 %30.22 in10.0 miSSE (160°)4.6 mphScattered Clouds
2:56 PM80.1 °F72.0 °F76 %30.20 in10.0 miSouth (180°)10.4 mph0.00 inRainLight Rain
3:13 PM78.8 °F71.6 °F78 %30.21 in6.0 miVariable6.9 mph0.01 inRain-ThunderstormThunderstorms and Rain
3:56 PM81.0 °F72.0 °F74 %30.19 in10.0 miSSW (200°)9.2 mph16.1 mph0.04 inThunderstormThunderstorm
4:45 PM80.6 °F71.6 °F74 %30.20 in10.0 miSSE (160°)8.1 mphThunderstormThunderstorm
4:56 PM81.0 °F72.0 °F74 %30.18 in10.0 miSSE (160°)5.8 mphThunderstormThunderstorm
5:56 PM81.0 °F72.0 °F74 %30.17 in10.0 miSouth (170°)3.5 mphScattered Clouds
6:56 PM79.0 °F72.0 °F79 %30.18 in10.0 miSSE (160°)6.9 mph0.01 inScattered Clouds
7:56 PM78.1 °F72.0 °F81 %30.18 in10.0 miSSE (150°)5.8 mphMostly Cloudy
8:56 PM75.0 °F72.0 °F90 %30.19 in10.0 miVariable3.5 mphPartly Cloudy
9:56 PM73.9 °F72.0 °F93 %30.21 in8.0 miSSE (160°)3.5 mphScattered Clouds
10:31 PM73.4 °F71.6 °F94 %30.22 in5.0 miSSE (160°)4.6 mphScattered Clouds
10:56 PM73.0 °F72.0 °F96 %30.21 in5.0 miCalmScattered Clouds
11:56 PM73.0 °F72.0 °F96 %30.22 in3.0 miSSE (160°)3.5 mphMist
Hourly data recorded from KHPN, located miles away from New Paltz, New York







STORIES FROM OUR PARTNERS